When you browse on this site, cookies collect data to enhance your experience and personalize the content and advertising you see.
Visit our Privacy Policy to learn more. By continuing to use the site, you agree to this use of cookies and data.
  • Em Portugal
  • Lista de países
  • Para 7 dias
  • Temperatura da água
  • Mapa do tempo
  • Widgets de tempo
  • user-avatar
    Iniciar Sessão

    Previsão horária em Lepe

    Hoje, 17 Novembro, Domingo

    Tempo Temperatura Precipitação Vento Pressão Humidade
    00:00 +7°C° 0 mm 3 m/s 762 mmHg 81%
    01:00 +8°C° 0 mm 3 m/s 762 mmHg 78%
    02:00 +9°C° 0 mm 2 m/s 762 mmHg 76%
    03:00 +9°C° 0 mm 2 m/s 762 mmHg 73%
    04:00 +10°C° 0.3 mm 2 m/s 761 mmHg 76%
    05:00 +10°C° 0.3 mm 3 m/s 761 mmHg 79%
    06:00 +10°C° 0.3 mm 3 m/s 761 mmHg 83%
    07:00 +11°C° 0.5 mm 4 m/s 761 mmHg 84%
    08:00 +12°C° 0.5 mm 4 m/s 762 mmHg 85%
    09:00 +13°C° 0.5 mm 4 m/s 762 mmHg 87%
    10:00 +15°C° 0.1 mm 5 m/s 762 mmHg 78%
    11:00 +17°C° 0.1 mm 5 m/s 761 mmHg 69%
    12:00 +20°C° 0.1 mm 6 m/s 761 mmHg 60%
    13:00 +20°C° 0.1 mm 6 m/s 761 mmHg 60%
    14:00 +20°C° 0.1 mm 7 m/s 760 mmHg 59%
    15:00 +20°C° 0.1 mm 7 m/s 760 mmHg 59%
    16:00 +19°C° 0 mm 6 m/s 760 mmHg 66%
    17:00 +16°C° 0 mm 6 m/s 759 mmHg 72%
    18:00 +15°C° 0 mm 5 m/s 759 mmHg 79%
    19:00 +15°C° 0 mm 5 m/s 760 mmHg 81%
    20:00 +15°C° 0 mm 6 m/s 760 mmHg 83%
    21:00 +15°C° 0 mm 6 m/s 760 mmHg 86%
    22:00 +14°C° 0.1 mm 6 m/s 760 mmHg 85%
    23:00 +13°C° 0.1 mm 6 m/s 760 mmHg 85%

    Amanhã, 18 Novembro, Segunda-feira

    Tempo Temperatura Precipitação Vento Pressão Humidade
    00:00 +10°C° 0.1 mm 6 m/s 760 mmHg 85%
    01:00 +9°C° 0 mm 6 m/s 760 mmHg 84%
    02:00 +9°C° 0 mm 6 m/s 760 mmHg 84%
    03:00 +8°C° 0 mm 6 m/s 760 mmHg 83%
    04:00 +8°C° 0 mm 6 m/s 760 mmHg 83%
    05:00 +6°C° 0 mm 7 m/s 760 mmHg 84%
    06:00 +6°C° 0 mm 7 m/s 760 mmHg 84%
    07:00 +8°C° 0 mm 6 m/s 760 mmHg 80%
    08:00 +9°C° 0 mm 6 m/s 761 mmHg 76%
    09:00 +10°C° 0 mm 6 m/s 762 mmHg 71%
    10:00 +13°C° 0 mm 6 m/s 761 mmHg 65%
    11:00 +14°C° 0 mm 6 m/s 761 mmHg 58%
    12:00 +16°C° 0 mm 6 m/s 761 mmHg 51%
    13:00 +16°C° 0 mm 6 m/s 761 mmHg 49%
    14:00 +17°C° 0 mm 5 m/s 760 mmHg 47%
    15:00 +17°C° 0 mm 5 m/s 760 mmHg 44%
    16:00 +15°C° 0 mm 4 m/s 760 mmHg 50%
    17:00 +14°C° 0 mm 4 m/s 760 mmHg 56%
    18:00 +12°C° 0 mm 3 m/s 761 mmHg 62%
    19:00 +12°C° 0 mm 3 m/s 761 mmHg 67%
    20:00 +11°C° 0 mm 3 m/s 761 mmHg 72%
    21:00 +10°C° 0 mm 3 m/s 761 mmHg 76%
    22:00 +10°C° 0 mm 3 m/s 761 mmHg 79%
    23:00 +9°C° 0 mm 3 m/s 761 mmHg 81%

    Depois de amanhã, 19 Novembro, Terça-feira

    Tempo Temperatura Precipitação Vento Pressão Humidade
    00:00 +9°C° 0 mm 3 m/s 761 mmHg 83%
    01:00 +9°C° 0 mm 3 m/s 761 mmHg 81%
    02:00 +9°C° 0 mm 3 m/s 761 mmHg 78%
    03:00 +9°C° 0 mm 2 m/s 761 mmHg 76%
    04:00 +9°C° 0 mm 2 m/s 761 mmHg 77%
    05:00 +10°C° 0 mm 1 m/s 761 mmHg 77%
    06:00 +10°C° 0 mm 1 m/s 760 mmHg 77%
    07:00 +10°C° 0 mm 1 m/s 761 mmHg 73%
    08:00 +11°C° 0 mm 1 m/s 761 mmHg 69%
    09:00 +12°C° 0 mm 1 m/s 761 mmHg 64%
    10:00 +13°C° 0 mm 1 m/s 761 mmHg 60%
    11:00 +15°C° 0 mm 1 m/s 761 mmHg 55%
    12:00 +16°C° 0 mm 1 m/s 760 mmHg 51%
    13:00 +16°C° 0 mm 2 m/s 760 mmHg 51%
    14:00 +16°C° 0 mm 2 m/s 759 mmHg 51%
    15:00 +17°C° 0 mm 3 m/s 759 mmHg 52%
    16:00 +16°C° 0 mm 3 m/s 758 mmHg 59%
    17:00 +14°C° 0 mm 3 m/s 758 mmHg 66%
    18:00 +13°C° 0 mm 3 m/s 758 mmHg 73%
    19:00 +13°C° 0 mm 3 m/s 758 mmHg 73%
    20:00 +13°C° 0 mm 3 m/s 758 mmHg 74%
    21:00 +13°C° 0 mm 3 m/s 758 mmHg 75%
    22:00 +13°C° 0.1 mm 4 m/s 757 mmHg 76%
    23:00 +13°C° 0.1 mm 4 m/s 757 mmHg 78%

    20 Novembro, Quarta-feira

    Tempo Temperatura Precipitação Vento Pressão Humidade
    00:00 +13°C° 0.1 mm 5 m/s 756 mmHg 80%
    01:00 +14°C° 0.2 mm 6 m/s 756 mmHg 80%
    02:00 +14°C° 0.2 mm 7 m/s 755 mmHg 80%
    03:00 +13°C° 0.2 mm 8 m/s 754 mmHg 80%
    04:00 +14°C° 5.6 mm 7 m/s 754 mmHg 84%
    05:00 +13°C° 5.6 mm 6 m/s 754 mmHg 89%
    06:00 +13°C° 5.6 mm 5 m/s 754 mmHg 93%
    07:00 +13°C° 0.3 mm 4 m/s 754 mmHg 90%
    08:00 +14°C° 0.3 mm 4 m/s 754 mmHg 87%
    09:00 +14°C° 0.3 mm 3 m/s 755 mmHg 83%
    10:00 +15°C° 0 mm 4 m/s 755 mmHg 76%
    11:00 +17°C° 0 mm 4 m/s 755 mmHg 69%
    12:00 +17°C° 0 mm 5 m/s 755 mmHg 62%
    13:00 +17°C° 0.2 mm 6 m/s 754 mmHg 63%
    14:00 +17°C° 0.2 mm 7 m/s 754 mmHg 64%
    15:00 +17°C° 0.2 mm 8 m/s 754 mmHg 65%
    16:00 +16°C° 0.3 mm 7 m/s 754 mmHg 70%
    17:00 +15°C° 0.3 mm 6 m/s 754 mmHg 75%
    18:00 +14°C° 0.3 mm 5 m/s 754 mmHg 79%
    19:00 +14°C° 0.2 mm 5 m/s 754 mmHg 81%
    20:00 +14°C° 0.2 mm 5 m/s 754 mmHg 82%
    21:00 +14°C° 0.2 mm 5 m/s 754 mmHg 83%
    22:00 +14°C° 0.2 mm 5 m/s 754 mmHg 83%
    23:00 +14°C° 0.2 mm 5 m/s 754 mmHg 84%

    21 Novembro, Quinta-feira

    Tempo Temperatura Precipitação Vento Pressão Humidade
    00:00 +13°C° 0.2 mm 4 m/s 754 mmHg 84%
    01:00 +13°C° 0.1 mm 4 m/s 753 mmHg 85%
    02:00 +13°C° 0.1 mm 4 m/s 753 mmHg 87%
    03:00 +13°C° 0.1 mm 4 m/s 753 mmHg 88%
    04:00 +12°C° 0 mm 4 m/s 753 mmHg 88%
    05:00 +12°C° 0 mm 4 m/s 753 mmHg 89%
    06:00 +12°C° 0 mm 4 m/s 752 mmHg 90%
    07:00 +13°C° 0 mm 3 m/s 753 mmHg 87%
    08:00 +14°C° 0 mm 3 m/s 753 mmHg 84%
    09:00 +14°C° 0 mm 3 m/s 753 mmHg 81%
    10:00 +17°C° 0.1 mm 3 m/s 753 mmHg 75%
    11:00 +18°C° 0.1 mm 3 m/s 752 mmHg 69%
    12:00 +19°C° 0.1 mm 4 m/s 752 mmHg 63%
    13:00 +18°C° 0.5 mm 4 m/s 751 mmHg 66%
    14:00 +17°C° 0.5 mm 5 m/s 751 mmHg 69%
    15:00 +16°C° 0.5 mm 6 m/s 750 mmHg 72%
    16:00 +15°C° 0.7 mm 5 m/s 750 mmHg 77%
    17:00 +15°C° 0.7 mm 4 m/s 750 mmHg 83%
    18:00 +14°C° 0.7 mm 3 m/s 750 mmHg 89%
    19:00 +14°C° 0.1 mm 2 m/s 750 mmHg 89%
    20:00 +14°C° 0.1 mm 2 m/s 750 mmHg 90%
    21:00 +13°C° 0.1 mm 2 m/s 750 mmHg 90%
    22:00 +12°C° 0.1 mm 3 m/s 750 mmHg 90%
    23:00 +11°C° 0.1 mm 3 m/s 750 mmHg 91%

    22 Novembro, Sexta-feira

    Tempo Temperatura Precipitação Vento Pressão Humidade
    00:00 +11°C° 0.1 mm 4 m/s 750 mmHg 91%
    01:00 +11°C° 0 mm 4 m/s 751 mmHg 91%
    02:00 +10°C° 0 mm 4 m/s 751 mmHg 90%
    03:00 +10°C° 0 mm 4 m/s 751 mmHg 90%
    04:00 +8°C° 0 mm 4 m/s 751 mmHg 90%
    05:00 +8°C° 0 mm 4 m/s 752 mmHg 90%
    06:00 +8°C° 0 mm 4 m/s 752 mmHg 90%
    07:00 +10°C° 0 mm 4 m/s 752 mmHg 85%
    08:00 +10°C° 0 mm 5 m/s 753 mmHg 81%
    09:00 +12°C° 0 mm 5 m/s 754 mmHg 76%
    10:00 +13°C° 0 mm 5 m/s 754 mmHg 68%
    11:00 +15°C° 0 mm 5 m/s 754 mmHg 59%
    12:00 +16°C° 0 mm 5 m/s 754 mmHg 51%
    13:00 +16°C° 0 mm 5 m/s 754 mmHg 51%
    14:00 +16°C° 0 mm 6 m/s 754 mmHg 50%
    15:00 +16°C° 0 mm 6 m/s 753 mmHg 50%
    16:00 +15°C° 0 mm 6 m/s 754 mmHg 56%
    17:00 +14°C° 0 mm 5 m/s 754 mmHg 62%
    18:00 +12°C° 0 mm 5 m/s 755 mmHg 69%
    19:00 +12°C° 0 mm 5 m/s 755 mmHg 72%
    20:00 +12°C° 0 mm 5 m/s 756 mmHg 75%
    21:00 +12°C° 0 mm 5 m/s 756 mmHg 78%
    22:00 +10°C° 0 mm 5 m/s 756 mmHg 81%
    23:00 +10°C° 0 mm 5 m/s 757 mmHg 85%
    Mostrar mais